Regional Weather Roundup
Issued by NWS Cleveland, OH

Home | Current Version | Previous Version | Graphics & Text | Print | Product List | Glossary On
Versions: 1 2 3 4 5 6 7 8 9 10 11 12 13 14 15 16 17 18 19 20 21 22 23 24 25 26 27 28 29 30 31 32 33 34 35 36 37 38 39 40 41 42 43 44 45 46 47 48 49 50
000
ASUS41 KCLE 222310
RWRCLE
OHIO REGIONAL WEATHER ROUNDUP
NATIONAL WEATHER SERVICE WILMINGTON, OH
700 PM EDT TUE AUG 22 2017

NOTE: "FAIR" INDICATES FEW OR NO CLOUDS BELOW 12,000 FEET WITH NO
SIGNIFICANT WEATHER AND/OR OBSTRUCTIONS TO VISIBILITY.

OHZ001>008-015>018-024>027-034-035-043-044-230000-
   NORTHWEST OHIO

CITY           SKY/WX    TMP DP  RH WIND       PRES   REMARKS
DEFIANCE       FAIR      76  61  59 NW14      29.87R
FINDLAY        LGT RAIN  76  63  64 NW13      29.84R
TOLEDO EXPRESS FAIR      76  62  62 W15G25    29.84R
TOLEDO EXEC    FAIR      78  62  57 W20G25    29.84R
LIMA           FAIR      78  66  66 W17G24    29.87S
$$

OHZ009>014-019>023-028>033-038-089-230000-
   NORTHEAST OHIO

CITY           SKY/WX    TMP DP  RH WIND       PRES   REMARKS
CLE-HOPKINS    CLOUDY    79  66  64 W14       29.83R
CLE-LAKEFRONT  FAIR      78  65  63 SW18      29.79R
CUY CO. ARPT   CLOUDY    81  68  65 W14G23    29.81R
LORAIN-ELYRIA  CLOUDY    76  62  62 W12G20    29.83R
ASHTABULA      PTSUNNY   75  66  73 W13       29.81R
AKRON-CANTON   FAIR      79  64  60 W12       29.85R
WOOSTER        FAIR      77  66  68 W12G18    29.86R
MANSFIELD      FAIR      77  67  71 SW10      29.87S
YOUNGSTOWN     PTSUNNY   78  65  63 W9        29.83R
$$

OHZ042-051>053-060>062-070>072-077>081-230000-
  SOUTHWEST OHIO

CITY           SKY/WX    TMP DP  RH WIND       PRES   REMARKS
CINC-COVINGTON PTSUNNY   76  70  82 W6        29.92S
CINC-LUNKEN    CLOUDY    78  69  73 SW6       29.91S
HAMILTON       FAIR      80  69  69 W9        29.91S
DAYTON         PTSUNNY   78  66  66 W10       29.90F
WRIGHT-PAT AFB PTSUNNY   79  69  69 W9        29.89S
DAYTON GENERAL FAIR      79  67  66 W8        29.90S
WILMINGTON     FAIR      77  70  79 W12       29.90F
$$

OHZ036-037-039>041-045>050-054>059-063>069-073>076-082>088-230000-
  CENTRAL AND SOUTHEAST OHIO

CITY           SKY/WX    TMP DP  RH WIND       PRES   REMARKS
COLUMBUS       PTSUNNY   78  68  71 W14       29.87S
OSU AIRPORT    FAIR      77  69  76 W13       29.88R
BOLTON FIELD   MOSUNNY   77  70  78 W8        29.89S
RICKENBACK AFB FAIR      76  69  77 W8        29.87F
NEWARK         FAIR      77  66  68 W12       29.87S
MARION         FAIR      79  64  60 W10       29.87R
LANCASTER      FAIR      77  68  73 W7        29.89R
ZANESVILLE     FAIR      77  70  79 W5        29.88R
NEW PHILLY     FAIR      78  67  68 W9        29.87S
$$




USA.gov is the U.S. government's official web portal to all federal, state and local government web resources and services.